Regional Weather Roundup
Issued by NWS

Home | Current Version | Previous Version | Graphics & Text | Print | Product List | Glossary On
Versions: 1 2 3 4 5 6 7 8 9 10 11 12 13 14 15 16 17 18 19 20 21 22 23 24 25 26 27 28 29 30 31 32 33 34 35 36 37 38 39 40 41 42 43 44 45 46 47 48 49 50
000
ASUS43 KFSD 282210
RWRSD

WEATHER ROUNDUP FOR SOUTH DAKOTA
NATIONAL WEATHER SERVICE SIOUX FALLS SD
500 PM CDT SUN AUG 28 2016

NOTE: "FAIR" INDICATES FEW OR NO CLOUDS BELOW 12,000 FEET WITH NO
SIGNIFICANT WEATHER AND/OR OBSTRUCTIONS TO VISIBILITY.


SDZ001>005-009-010-012>017-282300-
NORTHWEST AND NORTH CENTRAL SOUTH DAKOTA

CITY           SKY/WX    TMP DP  RH WIND       PRES   REMARKS
BUFFALO          N/A     93  46  19 N12       29.90S
FAITH            N/A     95  40  14 E8        29.94S
MOBRIDGE       SUNNY     93  56  28 SE12      29.88F
$$

SDZ012>016-024>037-041>051-057-063-072>074-282300-
SOUTHWEST AND SOUTH CENTRAL SOUTH DAKOTA

CITY           SKY/WX    TMP DP  RH WIND       PRES   REMARKS
RAPID CTY ARPT SUNNY     91  49  23 NE9       29.97F
PIERRE         SUNNY     95  59  30 W8        29.87F
CUSTER         SUNNY     83  26  12 W8        30.14S
ELLSWORTH AFB  SUNNY     90  45  20 E6        29.97F
PHILIP         SUNNY     95  45  17 SW7       29.91F
PINE RIDGE     MOSUNNY   93  41  16 VRB3      29.99S
WINNER         FAIR      96  61  31 S17       29.95S HX  96
$$

SDZ004>011-016>023-039-040-282300-
NORTHEAST SOUTH DAKOTA

CITY           SKY/WX    TMP DP  RH WIND       PRES   REMARKS
ABERDEEN       SUNNY     92  68  45 S21G30    29.90F HX  96
WATERTOWN      SUNNY     87  71  58 S21G29    29.98F
BROOKINGS        N/A    N/A N/A N/A MISG        N/A
SISSETON         N/A     89  72  56 S17G25    29.93S HX  96
$$

SDZ017-020-022-023-036>040-048>070-282300-
SOUTHEAST SOUTH DAKOTA

CITY           SKY/WX    TMP DP  RH WIND       PRES   REMARKS
SIOUX FALLS    MOSUNNY   89  72  56 SE15G22   30.02F HX  96
HURON          SUNNY     91  67  44 S17G26    29.93F
CHAMBERLAIN    SUNNY     96  63  33 S15       29.93S HX  97
MITCHELL       MOSUNNY   93  66  40 S18       29.96S HX  96
YANKTON        CLOUDY    90  70  51 SE18G25   29.98F HX  95
$$

ABBREVIATIONS USED IN REMARKS
   TC - TEMPERATURE IN CELSIUS
  WCI - WIND CHILL INDEX
   HX - HEAT INDEX
  VSB - VISIBILITY





USA.gov is the U.S. government's official web portal to all federal, state and local government web resources and services.